Meteo pe oră la Dachnaya

Astăzi, 14 Aprilie, Miercuri

Timp Temperatura Precipitaţii Vânt Presiune Umiditate
00:00 +9°C° 0.1 mm 2 m/s 745 mmHg 96%
01:00 +10°C° 0.1 mm 1 m/s 745 mmHg 96%
02:00 +10°C° 0 mm 1 m/s 745 mmHg 95%
03:00 +9°C° 0 mm 2 m/s 745 mmHg 95%
04:00 +9°C° 0 mm 2 m/s 745 mmHg 95%
05:00 +9°C° 0 mm 2 m/s 745 mmHg 94%
06:00 +9°C° 0 mm 2 m/s 745 mmHg 93%
07:00 +9°C° 0 mm 2 m/s 745 mmHg 93%
08:00 +9°C° 0 mm 2 m/s 745 mmHg 92%
09:00 +10°C° 0 mm 2 m/s 745 mmHg 91%
10:00 +10°C° 0 mm 2 m/s 745 mmHg 90%
11:00 +10°C° 0 mm 2 m/s 745 mmHg 89%
12:00 +12°C° 0.1 mm 2 m/s 745 mmHg 83%
13:00 +11°C° 0.1 mm 3 m/s 745 mmHg 78%
14:00 +12°C° 0.1 mm 3 m/s 745 mmHg 72%
15:00 +13°C° 0.1 mm 2 m/s 745 mmHg 73%
16:00 +13°C° 0.1 mm 2 m/s 745 mmHg 73%
17:00 +13°C° 0.1 mm 1 m/s 745 mmHg 74%
18:00 +12°C° 0 mm 2 m/s 745 mmHg 78%
19:00 +10°C° 0 mm 2 m/s 745 mmHg 82%
20:00 +9°C° 0 mm 2 m/s 745 mmHg 86%
21:00 +8°C° 0.1 mm 3 m/s 745 mmHg 89%
22:00 +8°C° 0.1 mm 3 m/s 745 mmHg 92%
23:00 +7°C° 0.1 mm 3 m/s 745 mmHg 95%

Mâine, 15 Aprilie, Joi

Timp Temperatura Precipitaţii Vânt Presiune Umiditate
00:00 +7°C° 0.1 mm 3 m/s 745 mmHg 95%
01:00 +6°C° 0.1 mm 4 m/s 745 mmHg 95%
02:00 +6°C° 0.1 mm 4 m/s 745 mmHg 95%
03:00 +6°C° 0.2 mm 4 m/s 745 mmHg 95%
04:00 +6°C° 0.2 mm 4 m/s 745 mmHg 95%
05:00 +6°C° 0.2 mm 4 m/s 745 mmHg 95%
06:00 +6°C° 0.2 mm 4 m/s 744 mmHg 95%
07:00 +6°C° 0.2 mm 5 m/s 744 mmHg 95%
08:00 +7°C° 0.2 mm 5 m/s 744 mmHg 94%
09:00 +7°C° 0.3 mm 5 m/s 744 mmHg 93%
10:00 +7°C° 0.3 mm 5 m/s 744 mmHg 91%
11:00 +8°C° 0.3 mm 5 m/s 744 mmHg 90%
12:00 +9°C° 0.1 mm 6 m/s 744 mmHg 85%
13:00 +10°C° 0.1 mm 6 m/s 744 mmHg 81%
14:00 +11°C° 0.1 mm 6 m/s 743 mmHg 76%
15:00 +11°C° 0.2 mm 7 m/s 743 mmHg 78%
16:00 +10°C° 0.2 mm 7 m/s 743 mmHg 79%
17:00 +10°C° 0.2 mm 7 m/s 743 mmHg 81%
18:00 +10°C° 0.4 mm 7 m/s 743 mmHg 84%
19:00 +9°C° 0.4 mm 7 m/s 743 mmHg 88%
20:00 +8°C° 0.4 mm 7 m/s 743 mmHg 91%
21:00 +8°C° 0.6 mm 6 m/s 743 mmHg 91%
22:00 +8°C° 0.6 mm 6 m/s 743 mmHg 91%
23:00 +8°C° 0.6 mm 5 m/s 744 mmHg 91%

Poimâine, 16 Aprilie, Vineri

Timp Temperatura Precipitaţii Vânt Presiune Umiditate
00:00 +8°C° 0.2 mm 5 m/s 744 mmHg 91%
01:00 +7°C° 0.2 mm 5 m/s 744 mmHg 92%
02:00 +7°C° 0.2 mm 6 m/s 744 mmHg 92%
03:00 +7°C° 0 mm 6 m/s 744 mmHg 92%
04:00 +5°C° 0 mm 6 m/s 744 mmHg 92%
05:00 +5°C° 0 mm 6 m/s 744 mmHg 93%
06:00 +7°C° 0.1 mm 6 m/s 744 mmHg 91%
07:00 +7°C° 0.1 mm 6 m/s 745 mmHg 90%
08:00 +8°C° 0.1 mm 6 m/s 745 mmHg 89%
09:00 +8°C° 0.1 mm 6 m/s 745 mmHg 86%
10:00 +9°C° 0.1 mm 6 m/s 745 mmHg 83%
11:00 +10°C° 0.1 mm 6 m/s 745 mmHg 81%
12:00 +10°C° 0.6 mm 6 m/s 745 mmHg 82%
13:00 +10°C° 0.6 mm 6 m/s 745 mmHg 83%
14:00 +10°C° 0.6 mm 6 m/s 745 mmHg 84%
15:00 +9°C° 1.4 mm 5 m/s 745 mmHg 87%
16:00 +9°C° 1.4 mm 5 m/s 746 mmHg 89%
17:00 +10°C° 1.4 mm 4 m/s 746 mmHg 91%
18:00 +8°C° 0.1 mm 4 m/s 746 mmHg 92%
19:00 +8°C° 0.1 mm 4 m/s 746 mmHg 93%
20:00 +8°C° 0.1 mm 3 m/s 747 mmHg 94%
21:00 +8°C° 0.2 mm 4 m/s 747 mmHg 94%
22:00 +8°C° 0.2 mm 4 m/s 747 mmHg 94%
23:00 +8°C° 0.2 mm 4 m/s 747 mmHg 94%

17 Aprilie, Sâmbătă

Timp Temperatura Precipitaţii Vânt Presiune Umiditate
00:00 +8°C° 0.2 mm 4 m/s 747 mmHg 94%
01:00 +8°C° 0.2 mm 4 m/s 747 mmHg 94%
02:00 +7°C° 0.2 mm 4 m/s 748 mmHg 94%
03:00 +7°C° 0 mm 4 m/s 748 mmHg 93%
04:00 +7°C° 0 mm 4 m/s 748 mmHg 92%
05:00 +7°C° 0 mm 4 m/s 748 mmHg 91%
06:00 +8°C° 0.1 mm 4 m/s 749 mmHg 91%
07:00 +8°C° 0.1 mm 4 m/s 749 mmHg 90%
08:00 +8°C° 0.1 mm 4 m/s 749 mmHg 90%
09:00 +8°C° 0 mm 4 m/s 749 mmHg 89%
10:00 +8°C° 0 mm 4 m/s 750 mmHg 88%
11:00 +8°C° 0 mm 4 m/s 750 mmHg 88%
12:00 +10°C° 0 mm 4 m/s 750 mmHg 84%
13:00 +10°C° 0 mm 5 m/s 750 mmHg 80%
14:00 +10°C° 0 mm 5 m/s 750 mmHg 76%
15:00 +10°C° 0 mm 5 m/s 750 mmHg 77%
16:00 +11°C° 0 mm 4 m/s 750 mmHg 78%
17:00 +11°C° 0 mm 4 m/s 750 mmHg 79%
18:00 +11°C° 0 mm 4 m/s 750 mmHg 78%
19:00 +11°C° 0 mm 4 m/s 750 mmHg 78%
20:00 +11°C° 0 mm 4 m/s 750 mmHg 77%
21:00 +10°C° 0 mm 4 m/s 750 mmHg 79%
22:00 +8°C° 0 mm 4 m/s 750 mmHg 82%
23:00 +7°C° 0 mm 4 m/s 751 mmHg 84%

18 Aprilie, Duminică

Timp Temperatura Precipitaţii Vânt Presiune Umiditate
00:00 +6°C° 0 mm 4 m/s 751 mmHg 84%
01:00 +6°C° 0 mm 4 m/s 751 mmHg 84%
02:00 +5°C° 0 mm 4 m/s 751 mmHg 84%
03:00 +5°C° 0 mm 4 m/s 751 mmHg 83%
04:00 +4°C° 0 mm 4 m/s 751 mmHg 83%
05:00 +3°C° 0 mm 4 m/s 751 mmHg 82%
06:00 +5°C° 0 mm 4 m/s 751 mmHg 78%
07:00 +6°C° 0 mm 5 m/s 751 mmHg 73%
08:00 +7°C° 0 mm 5 m/s 751 mmHg 69%
09:00 +8°C° 0 mm 5 m/s 751 mmHg 65%
10:00 +10°C° 0 mm 5 m/s 752 mmHg 62%
11:00 +12°C° 0 mm 5 m/s 752 mmHg 59%
12:00 +13°C° 0 mm 5 m/s 752 mmHg 58%
13:00 +13°C° 0 mm 5 m/s 752 mmHg 56%
14:00 +14°C° 0 mm 5 m/s 752 mmHg 55%
15:00 +13°C° 0 mm 4 m/s 752 mmHg 58%
16:00 +13°C° 0 mm 4 m/s 752 mmHg 61%
17:00 +12°C° 0 mm 3 m/s 752 mmHg 64%
18:00 +11°C° 0 mm 3 m/s 752 mmHg 65%
19:00 +11°C° 0 mm 3 m/s 752 mmHg 66%
20:00 +10°C° 0 mm 3 m/s 752 mmHg 67%
21:00 +10°C° 0 mm 3 m/s 753 mmHg 68%
22:00 +10°C° 0 mm 2 m/s 753 mmHg 69%
23:00 +9°C° 0 mm 2 m/s 753 mmHg 69%

19 Aprilie, Luni

Timp Temperatura Precipitaţii Vânt Presiune Umiditate
00:00 +9°C° 0 mm 2 m/s 753 mmHg 71%
01:00 +8°C° 0 mm 2 m/s 753 mmHg 72%
02:00 +8°C° 0 mm 2 m/s 753 mmHg 74%
03:00 +7°C° 0 mm 2 m/s 754 mmHg 75%
04:00 +7°C° 0 mm 2 m/s 754 mmHg 77%
05:00 +5°C° 0 mm 3 m/s 754 mmHg 78%
06:00 +7°C° 0 mm 3 m/s 754 mmHg 72%
07:00 +8°C° 0 mm 3 m/s 754 mmHg 67%
08:00 +8°C° 0 mm 4 m/s 754 mmHg 61%
09:00 +11°C° 0 mm 4 m/s 754 mmHg 56%
10:00 +12°C° 0 mm 4 m/s 754 mmHg 51%
11:00 +13°C° 0 mm 5 m/s 754 mmHg 45%
12:00 +14°C° 0 mm 5 m/s 754 mmHg 44%
13:00 +14°C° 0 mm 5 m/s 753 mmHg 43%
14:00 +14°C° 0 mm 5 m/s 753 mmHg 41%
15:00 +14°C° 0 mm 4 m/s 753 mmHg 44%
16:00 +14°C° 0 mm 4 m/s 753 mmHg 46%
17:00 +14°C° 0 mm 4 m/s 753 mmHg 49%
18:00 +12°C° 0 mm 4 m/s 753 mmHg 55%
19:00 +11°C° 0 mm 4 m/s 753 mmHg 60%
20:00 +8°C° 0 mm 5 m/s 753 mmHg 66%
21:00 +8°C° 0 mm 4 m/s 753 mmHg 69%
22:00 +8°C° 0 mm 4 m/s 753 mmHg 71%
23:00 +9°C° 0 mm 3 m/s 753 mmHg 74%
Arată mai mult

Formular de consimțământ

Meteoprog și furnizorii noștri de servicii pot stoca și accesa date personale, precum cookies, identificatori de dispozitiv sau alte tehnologii similare pe dispozitivul dumneavoastră și procesa astfel de date pentru a personaliza conținutul și reclamele, dar și pentru a oferi caracteristici de social media și pentru a analiza traficul.

  • Stocarea și/sau accesarea informațiilor pe dispozitivul dumneavoastră

    Cookies, identificatori de dispozitiv sau alte informații pot fi stocate sau accesate pe dispozitiv în scopurile indicate mai sus.

  • Reclame și conținut personalizat, evaluarea reclamelor și a conținutului, informații despre audiențe și dezvoltarea produselor

    Reclamele și conținutul pot fi personalizate pe baza unui profil. Pot fi adăugate date suplimentare pentru a personaliza mai bine reclamele și conținutul. Performanța reclamelor și conținutului poate fi măsurată. Pot fi obținute informații despre utilizatorii care au văzut reclamele și conținutul. Aceste date pot fi utilizate pentru a dezvolta sau îmbunătăți experiența utilizatorilor, sistemele și software-ul.

Dând clic pe ‘Sunt de acord’, permiteți utilizarea cookie-urilor menționate, a identificatorilor de dispozitiv, balizelor web sau altor tehnologii similare. Setările pot fi modificate din browser-ul dispozitivului dumneavoastră.

În anumite scopuri, interesele legitime pot prima asupra consimțământului. Puteți citi mai multe informații în acest sens în Politica privind Confidențialitatea Datelor și Cookie.